Queretaro Airport,

2:53 AM CST on January 23, 2018 (GMT -0600)
Queretaro Airport

Weather History for MMQT - September, 2012

Change the Weather History Date:

Thursday, September 6, 2012

  Actual Average Record
Temperature  
Mean Temperature 68 °F -  
Max Temperature 88 °F 75 °F 88 °F (2012)
Min Temperature 48 °F 54 °F 48 °F (2012)
Cooling Degree Days 3    
Growing Degree Days 18 (Base 50)    
Moisture  
Dew Point 49 °F    
Average Humidity 51    
Maximum Humidity 94    
Minimum Humidity 20    
Precipitation  
Precipitation 0.00 in - - ()
Sea Level Pressure  
Sea Level Pressure 30.12 in    
Wind  
Wind Speed 4 mph ()    
Max Wind Speed 14 mph    
Max Gust Speed -    
Visibility 6.2 miles    
Events      
Averages and records for this station are not official NWS values.
T = Trace of Precipitation, MM = Missing Value Source: Averaged Metar Reports

Daily Weather History Graph

Daily Weather History Graph

Search for Another Location

Airport or City:

Trip Planner

Search our weather history database for the weather conditions in past years. The results will help you decide how hot, cold, wet, or windy it might be!

Date:

Astronomy

Sep. 06, 2012 Rise Set
Actual Time 7:26 AM CDT 7:51 PM CDT
Civil Twilight 7:03 AM CDT 8:13 PM CDT
Nautical Twilight 6:37 AM CDT 8:39 PM CDT
Astronomical Twilight 6:11 AM CDT 9:05 PM CDT
Moon 11:56 PM CDT (9/6) 12:35 PM CDT (9/6)
Length of Visible Light 13h 09m
Length of Day
12h 25m
Waning Gibbous, 67% of the Moon is Illuminated
Sep 6
Waning Gibbous
Sep 8
Last Quarter
Sep 15
New
Sep 22
First Quarter
Sep 29
Full

Hourly Weather History & Observations

Time (CDT) Temp. Heat Index Dew Point Humidity Pressure Visibility Wind Dir Wind Speed Gust Speed Precip Events Conditions
12:45 AM 68 °F - 45 °F 33% 29.70 in 6 mi East 2.2 mph - -  
12:47 AM 60.8 °F - 44.6 °F 55% 30.27 in 7.0 mi ENE 4.6 mph - N/A   Scattered Clouds
1:50 AM 57.2 °F - 46.4 °F 67% 30.27 in 7.0 mi ENE 5.8 mph - N/A   Scattered Clouds
2:45 AM 57.2 °F - 46.4 °F 67% 30.27 in 7.0 mi East 3.5 mph - N/A   Scattered Clouds
3:42 AM 53.6 °F - 46.4 °F 77% 30.27 in 7.0 mi West 2.3 mph - N/A   Scattered Clouds
3:45 AM 65 °F - 46 °F 38% 29.77 in 6 mi West 2.2 mph - -  
4:50 AM 51.8 °F - 46.4 °F 82% 30.27 in 6.0 mi Calm Calm - N/A   Scattered Clouds
5:45 AM 50.0 °F - 44.6 °F 82% 30.27 in 6.0 mi Calm Calm - N/A   Scattered Clouds
6:40 AM 59 °F - 49 °F 62% 29.79 in 3 mi South 2.2 mph - -   Partly Cloudy
6:45 AM 51.8 °F - 50.0 °F 94% 30.26 in 6.0 mi Calm Calm - N/A   Clear
7:45 AM 48.2 °F - 44.6 °F 87% 30.28 in 6.0 mi East 4.6 mph - N/A   Scattered Clouds
8:40 AM 55.4 °F - 50.0 °F 82% 30.30 in 6.0 mi East 4.6 mph - N/A   Scattered Clouds
9:40 AM 68 °F - 53 °F 49% 29.86 in 3 mi West 4.5 mph - -  
9:45 AM 68.0 °F - 55.4 °F 64% 30.32 in 6.0 mi Calm Calm - N/A   Scattered Clouds
10:45 AM 71.6 °F - 53.6 °F 53% 30.32 in 6.0 mi West 2.3 mph - N/A   Scattered Clouds
11:45 AM 75.2 °F - 51.8 °F 44% 30.32 in 6.0 mi Calm Calm - N/A   Partly Cloudy
12:45 PM 80.6 °F - 50.0 °F 34% 30.30 in 6.0 mi Calm Calm - N/A   Scattered Clouds
12:50 PM 82 °F - 56 °F 31% 29.83 in 6 mi West 4.5 mph - -   Scattered Clouds
1:45 PM 80.6 °F - 51.8 °F 37% 30.27 in 6.0 mi West 3.5 mph - N/A   Scattered Clouds
2:45 PM 82.4 °F 81.4 °F 53.6 °F 37% 30.22 in 6.0 mi Calm Calm - N/A   Mostly Cloudy
3:45 PM 80.6 °F 80.3 °F 53.6 °F 39% 30.22 in 6.0 mi West 11.5 mph - N/A   Mostly Cloudy
3:50 PM 83 °F - 50 °F 21% 29.70 in 6 mi NNW 6.7 mph - -   Mostly Cloudy
4:45 PM 82.4 °F 81.4 °F 53.6 °F 37% 30.16 in 6.0 mi NW 13.8 mph - N/A   Mostly Cloudy
5:45 PM 80.6 °F 80.3 °F 53.6 °F 39% 30.18 in 7.0 mi NW 9.2 mph - N/A   Mostly Cloudy
6:45 PM 77.0 °F - 53.6 °F 44% 30.18 in 7.0 mi West 9.2 mph - N/A   Mostly Cloudy
6:50 PM 80 °F - 46 °F 20% 29.60 in 6 mi NE 2.2 mph - -   Partly Cloudy
7:45 PM 77.0 °F - 50.0 °F 39% 30.18 in 7.0 mi NE 11.5 mph - N/A   Mostly Cloudy
8:45 PM 73.4 °F - 44.6 °F 36% 30.16 in 7.0 mi NNE 11.5 mph - N/A   Mostly Cloudy
9:45 PM 68.0 °F - 44.6 °F 43% 30.23 in 7.0 mi East 5.8 mph - N/A   Mostly Cloudy
9:55 PM 73 °F - 46 °F 26% 29.62 in 6 mi SE 8.9 mph - -   Partly Cloudy
10:45 PM 62.6 °F - 44.6 °F 52% 30.26 in 7.0 mi East 9.2 mph - N/A   Mostly Cloudy
11:45 PM 62.6 °F - 44.6 °F 52% 30.28 in 7.0 mi NE 6.9 mph - N/A   Scattered Clouds